TimeMDT,TemperatureF,Dew PointF,Humidity,Sea Level PressureIn,VisibilityMPH,Wind Direction,Wind SpeedMPH,Gust SpeedMPH,PrecipitationIn,Events,Conditions,WindDirDegrees,DateUTC
12:53 AM,70.0,53.1,55,29.91,10.0,NNW,4.6,-,N/A,,Clear,330,2013-08-30 06:53:00
1:53 AM,66.9,55.9,68,29.91,10.0,North,4.6,-,N/A,,Clear,350,2013-08-30 07:53:00
2:53 AM,64.9,57.9,78,29.91,10.0,Calm,Calm,-,N/A,,Clear,0,2013-08-30 08:53:00
3:53 AM,66.9,59.0,76,29.91,10.0,North,5.8,-,N/A,,Clear,360,2013-08-30 09:53:00
4:53 AM,66.0,59.0,78,29.92,10.0,NNW,4.6,-,N/A,,Clear,330,2013-08-30 10:53:00
5:53 AM,66.0,60.1,81,29.93,10.0,North,5.8,-,N/A,,Clear,350,2013-08-30 11:53:00
6:53 AM,66.9,61.0,81,29.96,10.0,North,3.5,-,N/A,,Clear,350,2013-08-30 12:53:00
7:53 AM,73.0,64.9,76,29.98,10.0,North,3.5,-,N/A,,Clear,360,2013-08-30 13:53:00
8:53 AM,82.0,66.0,58,29.98,10.0,ENE,9.2,-,N/A,,Clear,70,2013-08-30 14:53:00
9:53 AM,88.0,64.9,46,29.97,10.0,ENE,9.2,-,N/A,,Clear,60,2013-08-30 15:53:00
10:53 AM,93.0,62.1,36,29.96,10.0,East,11.5,-,N/A,,Clear,80,2013-08-30 16:53:00
11:53 AM,93.9,61.0,33,29.95,10.0,ESE,8.1,-,N/A,,Clear,120,2013-08-30 17:53:00
12:53 PM,98.1,59.0,27,29.93,10.0,SE,5.8,-,N/A,,Clear,140,2013-08-30 18:53:00
1:53 PM,100.0,59.0,26,29.91,10.0,ESE,10.4,-,N/A,,Clear,120,2013-08-30 19:53:00
2:53 PM,99.0,55.0,23,29.89,10.0,ENE,4.6,-,N/A,,Clear,60,2013-08-30 20:53:00
3:53 PM,95.0,59.0,30,29.87,10.0,SE,6.9,-,N/A,Thunderstorm,Thunderstorm,140,2013-08-30 21:53:00
4:28 PM,93.2,59.0,32,29.97,10.0,SE,10.4,-,0.00,Rain,Light Rain,130,2013-08-30 22:28:00
4:37 PM,96.8,59.0,28,29.96,10.0,East,12.7,19.6,0.00,Thunderstorm,Partly Cloudy,100,2013-08-30 22:37:00
4:53 PM,93.9,62.1,35,29.86,10.0,SE,16.1,25.3,0.00,Thunderstorm,Clear,140,2013-08-30 22:53:00
5:37 PM,89.6,60.8,38,29.96,10.0,SE,10.4,18.4,0.00,Rain,Light Rain,130,2013-08-30 23:37:00
5:53 PM,88.0,62.1,42,29.86,10.0,SSE,12.7,-,0.00,Thunderstorm,Clear,150,2013-08-30 23:53:00
6:53 PM,73.0,64.0,73,29.92,10.0,East,9.2,-,0.03,Thunderstorm,Thunderstorm,80,2013-08-31 00:53:00
7:19 PM,73.4,62.6,69,29.99,10.0,ESE,5.8,19.6,N/A,,Clear,120,2013-08-31 01:19:00
7:53 PM,72.0,63.0,73,29.91,10.0,East,9.2,-,N/A,,Clear,90,2013-08-31 01:53:00
8:53 PM,73.9,62.1,66,29.96,10.0,NNE,11.5,16.1,N/A,,Clear,20,2013-08-31 02:53:00
9:53 PM,73.9,59.0,59,29.95,10.0,NNE,8.1,-,N/A,,Clear,30,2013-08-31 03:53:00
10:53 PM,73.0,60.1,64,29.96,10.0,ENE,4.6,-,N/A,,Partly Cloudy,70,2013-08-31 04:53:00
11:53 PM,70.0,63.0,78,29.98,10.0,East,11.5,-,0.01,,Overcast,90,2013-08-31 05:53:00